Satellite-Ground Cal/Val Region Overpasses Predictions

Prediction of Satellite NPP Overpassing Cal/Val Region: PacNW

Region Location: (Latitude: 10.00, Longitude: 139.50) to (Latitude: 22.70, Longitude: 165.60).

Table of predicted overpasses for the next 14.0 days since TLE Epoch: 4/14/2017
Interval Starting Time Starting Location Ending Time Ending Location
1 04/15/2017 03:10:44 ( 10.01, 152.01) 04/15/2017 03:14:20 ( 22.70, 148.99)
2 04/15/2017 15:42:38 ( 22.66, 149.24) 04/15/2017 15:46:13 ( 10.04, 146.23)
3 04/16/2017 02:51:43 ( 10.02, 156.76) 04/16/2017 02:55:18 ( 22.64, 153.76)
4 04/16/2017 15:23:36 ( 22.65, 153.99) 04/16/2017 15:27:11 ( 10.03, 150.99)
5 04/17/2017 02:32:41 ( 10.03, 161.52) 04/17/2017 02:36:16 ( 22.65, 158.52)
6 04/17/2017 15:04:35 ( 22.65, 158.75) 04/17/2017 15:08:10 ( 10.03, 155.75)
7 04/18/2017 02:14:30 ( 12.98, 165.60) 04/18/2017 02:17:15 ( 22.66, 163.27)
8 04/18/2017 03:55:10 ( 10.04, 140.90) 04/18/2017 03:56:52 ( 16.04, 139.51)
9 04/18/2017 14:45:32 ( 22.70, 163.52) 04/18/2017 14:49:08 ( 10.02, 160.50)
10 04/19/2017 03:36:08 ( 10.05, 145.65) 04/19/2017 03:39:43 ( 22.68, 142.65)
11 04/19/2017 14:29:42 ( 11.48, 165.59) 04/19/2017 14:30:07 ( 10.01, 165.26)
12 04/19/2017 16:08:01 ( 22.68, 142.90) 04/19/2017 16:11:37 ( 10.01, 139.88)
13 04/20/2017 03:17:06 ( 10.00, 150.42) 04/20/2017 03:20:42 ( 22.68, 147.40)
14 04/20/2017 15:49:00 ( 22.67, 147.65) 04/20/2017 15:52:35 ( 10.06, 144.65)
15 04/21/2017 02:58:04 ( 10.01, 155.18) 04/21/2017 03:01:40 ( 22.69, 152.16)
16 04/21/2017 15:29:58 ( 22.66, 152.41) 04/21/2017 15:33:33 ( 10.05, 149.40)
17 04/22/2017 02:39:03 ( 10.02, 159.93) 04/22/2017 02:42:38 ( 22.65, 156.93)
18 04/22/2017 15:10:57 ( 22.66, 157.16) 04/22/2017 15:14:32 ( 10.04, 154.16)
19 04/23/2017 02:20:01 ( 10.03, 164.69) 04/23/2017 02:23:36 ( 22.66, 161.68)
20 04/23/2017 14:51:55 ( 22.65, 161.91) 04/23/2017 14:55:30 ( 10.03, 158.91)
21 04/24/2017 03:42:30 ( 10.05, 144.06) 04/24/2017 03:46:05 ( 22.67, 141.06)
22 04/24/2017 14:34:09 ( 18.24, 165.59) 04/24/2017 14:36:29 ( 10.02, 163.67)
23 04/24/2017 16:14:23 ( 22.69, 141.31) 04/24/2017 16:16:30 ( 15.24, 139.50)
24 04/25/2017 03:23:27 ( 10.00, 148.83) 04/25/2017 03:27:03 ( 22.68, 145.81)
25 04/25/2017 15:55:21 ( 22.68, 146.06) 04/25/2017 15:58:57 ( 10.00, 143.05)
26 04/26/2017 03:04:26 ( 10.01, 153.59) 04/26/2017 03:08:02 ( 22.70, 150.57)
27 04/26/2017 15:36:20 ( 22.67, 150.82) 04/26/2017 15:39:55 ( 10.05, 147.81)
28 04/27/2017 02:45:24 ( 10.03, 158.34) 04/27/2017 02:48:59 ( 22.65, 155.34)
29 04/27/2017 15:17:18 ( 22.65, 155.57) 04/27/2017 15:20:53 ( 10.04, 152.57)
30 04/28/2017 02:26:23 ( 10.04, 163.09) 04/28/2017 02:29:58 ( 22.66, 160.09)


NCC Satellite Cal/Val Overpasses Prediction Service
